Weather History for Jerome, ID

Change the Weather History Date:

Tuesday, June 5, 2012

  Actual Average Record
Temperature  
Mean Temperature 46 °F 61 °F  
Max Temperature 51 °F 74 °F 95 °F (1969)
Min Temperature 40 °F 48 °F 35 °F (1956)
Degree Days  
Heating Degree Days 19 6  
Month to date heating degree days 19 31  
Since 1 June heating degree days 19 31  
Since 1 July heating degree days 5883 6558  
Cooling Degree Days 0 1  
Month to date cooling degree days 23 5  
Year to date cooling degree days 54 18  
Since 1 June cooling degree days 23 5  
Moisture  
Dew Point 37 °F    
Average Humidity 68    
Maximum Humidity 85    
Minimum Humidity 50    
Precipitation  
Precipitation 0.07 in 0.05 in 0.58 in (1984)
Month to date precipitation 0.07 0.24  
Year to date precipitation 7.04 5.84  
Sea Level Pressure  
Sea Level Pressure 29.88 in    
Wind  
Wind Speed 12 mph (SW)    
Max Wind Speed 26 mph    
Max Gust Speed 33 mph    
Visibility 10 miles    
Events Rain    
T = Trace of Precipitation, MM = Missing Value Source: NWS Daily Summary

Daily Weather History Graph

Daily Weather History Graph

Search for Another Location

Airport:

Trip Planner

Search our weather history database for the weather conditions in past years. The results will help you decide how hot, cold, wet, or windy it might be!

Date:

Astronomy

Jun. 05, 2012 Rise Set
Actual Time 6:00 AM MDT 9:12 PM MDT
Civil Twilight 5:25 AM MDT 9:47 PM MDT
Nautical Twilight 4:41 AM MDT 10:31 PM MDT
Astronomical Twilight 3:47 AM MDT 11:26 PM MDT
Moon 10:39 PM MDT (6/5) 7:17 AM MDT (6/5)
Length of Visible Light 16h 21m
Length of Day
15h 12m
Full, 98% of the Moon is Illuminated
Jun 5
Full
Jun 11
Last Quarter
Jun 19
New
Jun 26
First Quarter
Jul 3
Full

Hourly Weather History & Observations

Time (MDT) Temp. Windchill Dew Point Humidity Pressure Visibility Wind Dir Wind Speed Gust Speed Precip Events Conditions
12:53 AM 50.0 °F - 39.0 °F 66% 29.76 in 10.0 mi WSW 21.9 mph 31.1 mph N/A   Mostly Cloudy
1:53 AM 50.0 °F - 37.9 °F 63% 29.74 in 10.0 mi WSW 10.4 mph 18.4 mph N/A   Overcast
2:53 AM 48.9 °F - 39.9 °F 71% 29.72 in 10.0 mi South 8.1 mph - N/A   Overcast
3:53 AM 48.0 °F - 39.9 °F 74% 29.72 in 10.0 mi South 6.9 mph - N/A   Mostly Cloudy
4:53 AM 46.9 °F - 39.0 °F 74% 29.71 in 10.0 mi South 5.8 mph - N/A   Clear
5:53 AM 46.9 °F - 39.0 °F 74% 29.73 in 10.0 mi West 4.6 mph - N/A   Scattered Clouds
6:53 AM 50.0 °F - 36.0 °F 59% 29.74 in 10.0 mi SSW 6.9 mph - N/A   Overcast
7:53 AM 50.0 °F - 35.1 °F 57% 29.74 in 10.0 mi South 5.8 mph - 0.00 in   Overcast
8:53 AM 50.0 °F - 32.0 °F 50% 29.78 in 10.0 mi SW 5.8 mph - N/A   Overcast
9:53 AM 50.0 °F - 32.0 °F 50% 29.83 in 10.0 mi Variable 6.9 mph - 0.00 in Rain Light Rain
10:53 AM 48.9 °F - 32.0 °F 52% 29.84 in 10.0 mi SW 9.2 mph - 0.00 in Rain Light Rain
11:53 AM 46.9 °F - 35.1 °F 63% 29.87 in 10.0 mi South 9.2 mph 25.3 mph 0.00 in Rain Light Rain
12:51 PM 44.6 °F 43.1 °F 37.4 °F 76% 29.89 in 10.0 mi East 3.5 mph - 0.04 in Rain Light Rain
12:53 PM 44.1 °F 41.5 °F 36.0 °F 73% 29.88 in 10.0 mi East 4.6 mph - 0.04 in Rain Light Rain
1:05 PM 44.6 °F 40.7 °F 37.4 °F 76% 29.90 in 10.0 mi East 6.9 mph - 0.00 in Rain Light Rain
1:53 PM 45.0 °F 38.9 °F 39.0 °F 80% 29.88 in 10.0 mi ESE 12.7 mph - 0.00 in Rain Light Rain
2:53 PM 50.0 °F - 39.0 °F 66% 29.85 in 10.0 mi Calm Calm - 0.00 in   Scattered Clouds
3:53 PM 51.1 °F - 41.0 °F 68% 29.87 in 10.0 mi NW 11.5 mph - N/A   Overcast
4:26 PM 51.8 °F - 42.8 °F 71% 29.90 in 10.0 mi West 13.8 mph - N/A   Overcast
4:53 PM 48.9 °F - 39.9 °F 71% 29.88 in 10.0 mi West 23.0 mph - N/A   Mostly Cloudy
5:53 PM 46.9 °F - 39.0 °F 74% 29.93 in 10.0 mi West 23.0 mph 32.2 mph N/A   Overcast
6:53 PM 45.0 °F 38.2 °F 41.0 °F 86% 29.95 in 10.0 mi WSW 15.0 mph - 0.02 in Rain Light Rain
7:53 PM 46.0 °F 37.4 °F 37.0 °F 71% 29.99 in 10.0 mi WSW 25.3 mph 33.4 mph 0.00 in   Overcast
8:53 PM 46.0 °F 38.5 °F 37.0 °F 71% 30.02 in 10.0 mi WSW 19.6 mph 23.0 mph N/A   Overcast
9:07 PM 44.6 °F 36.4 °F 35.6 °F 71% 30.04 in 10.0 mi WSW 20.7 mph 33.4 mph N/A   Overcast
9:34 PM 42.8 °F 35.1 °F 37.4 °F 81% 30.05 in 10.0 mi West 16.1 mph 25.3 mph 0.01 in   Overcast
9:42 PM 42.8 °F 33.5 °F 37.4 °F 81% 30.05 in 10.0 mi WSW 23.0 mph 32.2 mph 0.01 in   Scattered Clouds
9:53 PM 43.0 °F 35.4 °F 36.0 °F 76% 30.04 in 10.0 mi WSW 16.1 mph 25.3 mph 0.01 in   Partly Cloudy
10:53 PM 41.0 °F 33.5 °F 35.1 °F 79% 30.07 in 10.0 mi WSW 13.8 mph - N/A   Clear
11:53 PM 39.9 °F 32.9 °F 36.0 °F 86% 30.09 in 10.0 mi SW 11.5 mph - N/A   Scattered Clouds